Time,TemperatureF,DewpointF,PressureIn,WindDirection,WindDirectionDegrees,WindSpeedMPH,WindSpeedGustMPH,Humidity,HourlyPrecipIn,Conditions,Clouds,dailyrainin,SoftwareType,DateUTC
2013-04-07 00:04:00,37.9,0.0,30.32,WSW,248,0.0,8.0,0,0.00,,,-99.99,Weather View 32 v60,2013-04-07 04:04:00,
2013-04-07 00:09:00,37.9,0.0,30.32,SW,225,2.0,7.0,0,0.00,,,-99.99,Weather View 32 v60,2013-04-07 04:09:00,
2013-04-07 00:14:00,37.9,0.0,30.32,SW,225,2.0,7.0,0,0.00,,,-99.99,Weather View 32 v60,2013-04-07 04:14:00,
2013-04-07 00:24:00,37.9,0.0,30.32,SW,225,0.0,4.0,0,0.00,,,-99.99,Weather View 32 v60,2013-04-07 04:24:00,
2013-04-07 00:29:00,37.9,0.0,30.32,NNW,338,0.0,3.0,0,0.00,,,-99.99,Weather View 32 v60,2013-04-07 04:29:00,
2013-04-07 00:34:00,37.9,0.0,30.32,NNW,338,0.0,3.0,0,0.00,,,-99.99,Weather View 32 v60,2013-04-07 04:34:00,
2013-04-07 00:44:00,37.9,0.0,30.32,NNW,338,0.0,3.0,0,0.00,,,-99.99,Weather View 32 v60,2013-04-07 04:44:00,
2013-04-07 00:54:00,37.9,0.0,30.31,NNW,338,0.0,3.0,0,0.00,,,-99.99,Weather View 32 v60,2013-04-07 04:54:00,
2013-04-07 01:04:00,37.9,0.0,30.31,NNW,338,0.0,2.0,0,0.00,,,-99.99,Weather View 32 v60,2013-04-07 05:04:00,
2013-04-07 01:19:00,37.9,0.0,30.31,NNW,338,0.0,2.0,0,0.00,,,-99.99,Weather View 32 v60,2013-04-07 05:19:00,
2013-04-07 01:29:00,37.9,0.0,30.31,NNW,338,0.0,1.0,0,0.00,,,-99.99,Weather View 32 v60,2013-04-07 05:29:00,
2013-04-07 01:56:00,37.9,0.0,30.30,ENE,68,0.0,0.0,0,0.00,,,-99.99,Weather View 32 v60,2013-04-07 05:56:00,
2013-04-07 02:04:00,37.9,0.0,30.30,ENE,68,0.0,0.0,0,0.00,,,-99.99,Weather View 32 v60,2013-04-07 06:04:00,
2013-04-07 02:09:00,37.9,0.0,30.30,ENE,68,1.0,1.0,0,0.00,,,-99.99,Weather View 32 v60,2013-04-07 06:09:00,
2013-04-07 02:19:00,37.9,0.0,30.29,NE,45,2.0,3.0,0,0.00,,,-99.99,Weather View 32 v60,2013-04-07 06:19:00,
2013-04-07 02:24:00,37.9,0.0,30.29,ENE,68,3.0,3.0,0,0.00,,,-99.99,Weather View 32 v60,2013-04-07 06:24:00,
2013-04-07 02:34:00,37.9,0.0,30.28,ENE,68,5.0,5.0,0,0.00,,,-99.99,Weather View 32 v60,2013-04-07 06:34:00,
2013-04-07 02:49:00,37.9,0.0,30.28,East,90,3.0,5.0,0,0.00,,,-99.99,Weather View 32 v60,2013-04-07 06:49:00,
2013-04-07 02:54:00,37.9,0.0,30.27,East,90,2.0,5.0,0,0.00,,,-99.99,Weather View 32 v60,2013-04-07 06:54:00,
2013-04-07 03:04:00,37.9,0.0,30.27,East,90,2.0,5.0,0,0.00,,,-99.99,Weather View 32 v60,2013-04-07 07:04:00,
2013-04-07 03:09:00,37.9,0.0,30.28,ESE,113,4.0,5.0,0,0.00,,,-99.99,Weather View 32 v60,2013-04-07 07:09:00,
2013-04-07 03:19:00,37.9,0.0,30.27,SE,135,5.0,6.0,0,0.00,,,-99.99,Weather View 32 v60,2013-04-07 07:19:00,
2013-04-07 03:24:00,37.9,0.0,30.27,SE,135,5.0,6.0,0,0.00,,,-99.99,Weather View 32 v60,2013-04-07 07:24:00,
2013-04-07 03:34:00,37.9,0.0,30.27,SE,135,5.0,6.0,0,0.00,,,-99.99,Weather View 32 v60,2013-04-07 07:34:00,
2013-04-07 03:39:00,37.9,0.0,30.27,SE,135,5.0,6.0,0,0.00,,,-99.99,Weather View 32 v60,2013-04-07 07:39:00,
2013-04-07 03:44:00,37.9,0.0,30.27,SE,135,5.0,6.0,0,0.00,,,-99.99,Weather View 32 v60,2013-04-07 07:44:00,
2013-04-07 03:54:00,37.9,0.0,30.27,NNW,338,5.0,6.0,0,0.00,,,-99.99,Weather View 32 v60,2013-04-07 07:54:00,
2013-04-07 03:59:00,37.9,0.0,30.26,SE,135,5.0,6.0,0,0.00,,,-99.99,Weather View 32 v60,2013-04-07 07:59:00,
2013-04-07 04:09:00,37.9,0.0,30.26,SE,135,3.0,6.0,0,0.00,,,-99.99,Weather View 32 v60,2013-04-07 08:09:00,
2013-04-07 04:14:00,37.9,0.0,30.26,SE,135,6.0,6.0,0,0.00,,,-99.99,Weather View 32 v60,2013-04-07 08:14:00,
2013-04-07 04:24:00,37.9,0.0,30.26,NNW,338,7.0,8.0,0,0.00,,,-99.99,Weather View 32 v60,2013-04-07 08:24:00,
2013-04-07 04:29:00,37.9,0.0,30.26,NNW,338,9.0,9.0,0,0.00,,,-99.99,Weather View 32 v60,2013-04-07 08:29:00,
2013-04-07 04:34:00,37.9,0.0,30.26,NNW,338,7.0,9.0,0,0.00,,,-99.99,Weather View 32 v60,2013-04-07 08:34:00,
2013-04-07 04:44:00,37.9,0.0,30.26,NNW,338,4.0,9.0,0,0.00,,,-99.99,Weather View 32 v60,2013-04-07 08:44:00,
2013-04-07 04:54:00,37.9,0.0,30.27,NNW,338,6.0,9.0,0,0.00,,,-99.99,Weather View 32 v60,2013-04-07 08:54:00,
2013-04-07 04:59:00,37.9,0.0,30.27,SW,225,6.0,9.0,0,0.00,,,-99.99,Weather View 32 v60,2013-04-07 08:59:00,
2013-04-07 05:04:00,37.9,0.0,30.27,SW,225,5.0,9.0,0,0.00,,,-99.99,Weather View 32 v60,2013-04-07 09:04:00,
2013-04-07 05:14:00,37.9,0.0,30.27,NNW,338,7.0,9.0,0,0.00,,,-99.99,Weather View 32 v60,2013-04-07 09:14:00,
2013-04-07 05:24:00,37.9,0.0,30.27,NNW,338,9.0,9.0,0,0.00,,,-99.99,Weather View 32 v60,2013-04-07 09:24:00,
2013-04-07 05:29:00,37.9,0.0,30.27,NNW,338,9.0,10.0,0,0.00,,,-99.99,Weather View 32 v60,2013-04-07 09:29:00,
2013-04-07 05:34:00,37.9,0.0,30.27,NNW,338,9.0,10.0,0,0.00,,,-99.99,Weather View 32 v60,2013-04-07 09:34:00,
2013-04-07 05:39:00,37.9,0.0,30.27,SW,225,11.0,12.0,0,0.00,,,-99.99,Weather View 32 v60,2013-04-07 09:39:00,
2013-04-07 05:49:00,37.9,0.0,30.28,SW,225,12.0,14.0,0,0.00,,,-99.99,Weather View 32 v60,2013-04-07 09:49:00,
2013-04-07 05:54:00,37.9,0.0,30.27,SW,225,12.0,14.0,0,0.00,,,-99.99,Weather View 32 v60,2013-04-07 09:54:00,
2013-04-07 06:04:00,37.6,0.0,30.28,SW,225,8.0,14.0,0,0.00,,,-99.99,Weather View 32 v60,2013-04-07 10:04:00,
2013-04-07 06:14:00,37.6,0.0,30.28,WSW,248,10.0,14.0,0,0.00,,,-99.99,Weather View 32 v60,2013-04-07 10:14:00,
2013-04-07 06:19:00,37.2,0.0,30.28,SW,225,8.0,14.0,0,0.00,,,-99.99,Weather View 32 v60,2013-04-07 10:19:00,
2013-04-07 06:24:00,37.2,0.0,30.28,SW,225,9.0,14.0,0,0.00,,,-99.99,Weather View 32 v60,2013-04-07 10:24:00,
2013-04-07 06:34:00,37.2,0.0,30.29,SW,225,9.0,14.0,0,0.00,,,-99.99,Weather View 32 v60,2013-04-07 10:34:00,
2013-04-07 06:39:00,37.2,0.0,30.28,SW,225,8.0,14.0,0,0.00,,,-99.99,Weather View 32 v60,2013-04-07 10:39:00,
2013-04-07 06:49:00,37.2,0.0,30.29,WSW,248,10.0,14.0,0,0.00,,,-99.99,Weather View 32 v60,2013-04-07 10:49:00,
2013-04-07 06:54:00,37.2,0.0,30.29,SW,225,10.0,13.0,0,0.00,,,-99.99,Weather View 32 v60,2013-04-07 10:54:00,
2013-04-07 06:59:00,37.2,0.0,30.29,SW,225,7.0,12.0,0,0.00,,,-99.99,Weather View 32 v60,2013-04-07 10:59:00,
2013-04-07 07:09:00,37.2,0.0,30.30,SW,225,9.0,12.0,0,0.00,,,-99.99,Weather View 32 v60,2013-04-07 11:09:00,
2013-04-07 07:19:00,37.2,0.0,30.30,WSW,248,6.0,12.0,0,0.00,,,-99.99,Weather View 32 v60,2013-04-07 11:19:00,
2013-04-07 07:24:00,37.2,0.0,30.30,WSW,248,10.0,12.0,0,0.00,,,-99.99,Weather View 32 v60,2013-04-07 11:24:00,
2013-04-07 07:34:00,37.2,0.0,30.30,WSW,248,9.0,12.0,0,0.00,,,-99.99,Weather View 32 v60,2013-04-07 11:34:00,
2013-04-07 07:39:00,37.2,0.0,30.30,WSW,248,9.0,12.0,0,0.00,,,-99.99,Weather View 32 v60,2013-04-07 11:39:00,
2013-04-07 07:49:00,37.6,0.0,30.30,SW,225,6.0,12.0,0,0.00,,,-99.99,Weather View 32 v60,2013-04-07 11:49:00,
2013-04-07 07:54:00,37.6,0.0,30.31,SW,225,9.0,12.0,0,0.00,,,-99.99,Weather View 32 v60,2013-04-07 11:54:00,
2013-04-07 08:00:00,37.6,0.0,30.31,WSW,248,8.0,12.0,0,0.00,,,-99.99,Weather View 32 v60,2013-04-07 12:00:00,
2013-04-07 08:09:00,37.9,0.0,30.31,SW,225,10.0,12.0,0,0.00,,,-99.99,Weather View 32 v60,2013-04-07 12:09:00,
2013-04-07 08:19:00,38.3,0.0,30.31,SW,225,9.0,12.0,0,0.00,,,-99.99,Weather View 32 v60,2013-04-07 12:19:00,
2013-04-07 08:29:00,38.3,0.0,30.31,WSW,248,9.0,12.0,0,0.00,,,-99.99,Weather View 32 v60,2013-04-07 12:29:00,
2013-04-07 08:34:00,37.9,0.0,30.31,SW,225,8.0,12.0,0,0.00,,,-99.99,Weather View 32 v60,2013-04-07 12:34:00,
2013-04-07 08:44:00,38.3,0.0,30.30,WSW,248,11.0,12.0,0,0.00,,,-99.99,Weather View 32 v60,2013-04-07 12:44:00,
2013-04-07 08:49:00,38.3,0.0,30.30,WSW,248,11.0,12.0,0,0.00,,,-99.99,Weather View 32 v60,2013-04-07 12:49:00,
2013-04-07 08:54:00,38.3,0.0,30.30,SW,225,8.0,12.0,0,0.00,,,-99.99,Weather View 32 v60,2013-04-07 12:54:00,
2013-04-07 09:00:00,38.3,0.0,30.30,SW,225,11.0,12.0,0,0.00,,,-99.99,Weather View 32 v60,2013-04-07 13:00:00,
2013-04-07 09:14:00,40.8,0.0,30.30,SW,225,12.0,13.0,0,0.00,,,-99.99,Weather View 32 v60,2013-04-07 13:14:00,
2013-04-07 09:19:00,41.5,0.0,30.30,SW,225,11.0,13.0,0,0.00,,,-99.99,Weather View 32 v60,2013-04-07 13:19:00,
2013-04-07 09:24:00,41.5,0.0,30.29,SW,225,12.0,13.0,0,0.00,,,-99.99,Weather View 32 v60,2013-04-07 13:24:00,
2013-04-07 09:29:00,41.5,0.0,30.29,SW,225,10.0,13.0,0,0.00,,,-99.99,Weather View 32 v60,2013-04-07 13:29:00,
2013-04-07 09:39:00,41.5,0.0,30.28,SW,225,10.0,13.0,0,0.00,,,-99.99,Weather View 32 v60,2013-04-07 13:39:00,
2013-04-07 09:49:00,42.3,0.0,30.28,SW,225,11.0,13.0,0,0.00,,,-99.99,Weather View 32 v60,2013-04-07 13:49:00,
2013-04-07 09:59:00,43.3,0.0,30.28,SW,225,12.0,13.0,0,0.00,,,-99.99,Weather View 32 v60,2013-04-07 13:59:00,
2013-04-07 10:04:00,43.7,0.0,30.27,SW,225,10.0,13.0,0,0.00,,,-99.99,Weather View 32 v60,2013-04-07 14:04:00,
2013-04-07 10:09:00,43.7,0.0,30.27,SW,225,12.0,13.0,0,0.00,,,-99.99,Weather View 32 v60,2013-04-07 14:09:00,
2013-04-07 10:19:00,44.4,0.0,30.27,SW,225,10.0,13.0,0,0.00,,,-99.99,Weather View 32 v60,2013-04-07 14:19:00,
2013-04-07 10:29:00,45.5,0.0,30.26,SW,225,9.0,13.0,0,0.00,,,-99.99,Weather View 32 v60,2013-04-07 14:29:00,
2013-04-07 10:34:00,45.9,0.0,30.26,SW,225,11.0,13.0,0,0.00,,,-99.99,Weather View 32 v60,2013-04-07 14:34:00,
2013-04-07 10:44:00,46.2,0.0,30.26,SW,225,13.0,14.0,0,0.00,,,-99.99,Weather View 32 v60,2013-04-07 14:44:00,
2013-04-07 10:49:00,46.2,0.0,30.26,SW,225,14.0,15.0,0,0.00,,,-99.99,Weather View 32 v60,2013-04-07 14:49:00,
2013-04-07 10:54:00,46.2,0.0,30.25,WSW,248,14.0,17.0,0,0.00,,,-99.99,Weather View 32 v60,2013-04-07 14:54:00,
2013-04-07 10:59:00,46.6,0.0,30.25,SW,225,13.0,17.0,0,0.00,,,-99.99,Weather View 32 v60,2013-04-07 14:59:00,
2013-04-07 11:09:00,47.3,0.0,30.24,SW,225,13.0,17.0,0,0.00,,,-99.99,Weather View 32 v60,2013-04-07 15:09:00,
2013-04-07 11:14:00,47.7,0.0,30.24,SW,225,13.0,17.0,0,0.00,,,-99.99,Weather View 32 v60,2013-04-07 15:14:00,
2013-04-07 11:19:00,47.7,0.0,30.24,SW,225,12.0,17.0,0,0.00,,,-99.99,Weather View 32 v60,2013-04-07 15:19:00,
2013-04-07 11:24:00,46.9,0.0,30.23,SW,225,12.0,17.0,0,0.00,,,-99.99,Weather View 32 v60,2013-04-07 15:24:00,
2013-04-07 11:29:00,46.6,0.0,30.23,WSW,248,13.0,17.0,0,0.00,,,-99.99,Weather View 32 v60,2013-04-07 15:29:00,
2013-04-07 11:34:00,46.9,0.0,30.22,SW,225,14.0,17.0,0,0.00,,,-99.99,Weather View 32 v60,2013-04-07 15:34:00,
2013-04-07 11:44:00,46.6,0.0,30.21,WSW,248,17.0,19.0,0,0.00,,,-99.99,Weather View 32 v60,2013-04-07 15:44:00,
2013-04-07 11:49:00,46.2,0.0,30.21,WSW,248,18.0,20.0,0,0.00,,,-99.99,Weather View 32 v60,2013-04-07 15:49:00,
2013-04-07 12:02:00,46.2,0.0,30.20,WSW,248,18.0,20.0,0,0.00,,,-99.99,Weather View 32 v60,2013-04-07 16:02:00,
2013-04-07 12:09:00,45.9,0.0,30.20,SW,225,18.0,22.0,0,0.00,,,-99.99,Weather View 32 v60,2013-04-07 16:09:00,
2013-04-07 12:14:00,45.5,0.0,30.19,SW,225,21.0,23.0,0,0.00,,,-99.99,Weather View 32 v60,2013-04-07 16:14:00,
2013-04-07 12:19:00,45.5,0.0,30.18,WSW,248,21.0,23.0,0,0.00,,,-99.99,Weather View 32 v60,2013-04-07 16:19:00,
2013-04-07 12:29:00,45.9,0.0,30.17,SW,225,19.0,24.0,0,0.00,,,-99.99,Weather View 32 v60,2013-04-07 16:29:00,
2013-04-07 12:39:00,46.6,0.0,30.17,WSW,248,22.0,24.0,0,0.00,,,-99.99,Weather View 32 v60,2013-04-07 16:39:00,
2013-04-07 12:44:00,46.6,0.0,30.17,SW,225,21.0,25.0,0,0.00,,,-99.99,Weather View 32 v60,2013-04-07 16:44:00,
2013-04-07 12:49:00,46.6,0.0,30.16,SW,225,21.0,25.0,0,0.00,,,-99.99,Weather View 32 v60,2013-04-07 16:49:00,
2013-04-07 12:59:00,46.2,0.0,30.15,WSW,248,21.0,29.0,0,0.00,,,-99.99,Weather View 32 v60,2013-04-07 16:59:00,
2013-04-07 13:04:00,45.9,0.0,30.15,WSW,248,22.0,29.0,0,0.00,,,-99.99,Weather View 32 v60,2013-04-07 17:04:00,
2013-04-07 13:14:00,45.9,0.0,30.15,WSW,248,22.0,29.0,0,0.00,,,-99.99,Weather View 32 v60,2013-04-07 17:14:00,
2013-04-07 13:29:00,45.9,0.0,30.14,WSW,248,21.0,29.0,0,0.00,,,-99.99,Weather View 32 v60,2013-04-07 17:29:00,
2013-04-07 13:39:00,45.9,0.0,30.13,SW,225,21.0,29.0,0,0.00,,,-99.99,Weather View 32 v60,2013-04-07 17:39:00,
2013-04-07 13:49:00,46.2,0.0,30.12,SW,225,24.0,29.0,0,0.00,,,-99.99,Weather View 32 v60,2013-04-07 17:49:00,
2013-04-07 13:59:00,46.6,0.0,30.11,SW,225,25.0,34.0,0,0.00,,,-99.99,Weather View 32 v60,2013-04-07 17:59:00,
2013-04-07 14:09:00,46.6,0.0,30.10,SW,225,27.0,34.0,0,0.00,,,-99.99,Weather View 32 v60,2013-04-07 18:09:00,
2013-04-07 14:19:00,46.9,0.0,30.10,SW,225,28.0,35.0,0,0.00,,,-99.99,Weather View 32 v60,2013-04-07 18:19:00,
2013-04-07 14:24:00,46.9,0.0,30.10,WSW,248,32.0,36.0,0,0.00,,,-99.99,Weather View 32 v60,2013-04-07 18:24:00,
2013-04-07 14:29:00,47.3,0.0,30.10,SW,225,28.0,36.0,0,0.00,,,-99.99,Weather View 32 v60,2013-04-07 18:29:00,
2013-04-07 14:34:00,47.3,0.0,30.10,WSW,248,24.0,36.0,0,0.00,,,-99.99,Weather View 32 v60,2013-04-07 18:34:00,
2013-04-07 14:49:00,47.3,0.0,30.09,WSW,248,25.0,36.0,0,0.00,,,-99.99,Weather View 32 v60,2013-04-07 18:49:00,
2013-04-07 14:54:00,46.9,0.0,30.09,SW,225,26.0,36.0,0,0.00,,,-99.99,Weather View 32 v60,2013-04-07 18:54:00,
2013-04-07 14:59:00,46.6,0.0,30.09,WSW,248,23.0,36.0,0,0.00,,,-99.99,Weather View 32 v60,2013-04-07 18:59:00,
2013-04-07 15:04:00,46.6,0.0,30.08,SW,225,27.0,36.0,0,0.00,,,-99.99,Weather View 32 v60,2013-04-07 19:04:00,
2013-04-07 15:14:00,46.9,0.0,30.07,SW,225,27.0,36.0,0,0.00,,,-99.99,Weather View 32 v60,2013-04-07 19:14:00,
2013-04-07 15:24:00,46.9,0.0,30.07,SW,225,24.0,35.0,0,0.00,,,-99.99,Weather View 32 v60,2013-04-07 19:24:00,
2013-04-07 15:34:00,46.6,0.0,30.07,WSW,248,31.0,35.0,0,0.00,,,-99.99,Weather View 32 v60,2013-04-07 19:34:00,
2013-04-07 15:39:00,46.6,0.0,30.07,WSW,248,29.0,36.0,0,0.00,,,-99.99,Weather View 32 v60,2013-04-07 19:39:00,
2013-04-07 15:44:00,46.6,0.0,30.07,SW,225,27.0,36.0,0,0.00,,,-99.99,Weather View 32 v60,2013-04-07 19:44:00,
2013-04-07 15:54:00,46.6,0.0,30.06,SW,225,30.0,37.0,0,0.00,,,-99.99,Weather View 32 v60,2013-04-07 19:54:00,
2013-04-07 16:05:00,46.2,0.0,30.05,WSW,248,30.0,38.0,0,0.00,,,-99.99,Weather View 32 v60,2013-04-07 20:05:00,
2013-04-07 16:14:00,46.6,0.0,30.05,SW,225,29.0,38.0,0,0.00,,,-99.99,Weather View 32 v60,2013-04-07 20:14:00,
2013-04-07 16:19:00,46.9,0.0,30.05,WSW,248,33.0,38.0,0,0.00,,,-99.99,Weather View 32 v60,2013-04-07 20:19:00,
2013-04-07 16:24:00,46.6,0.0,30.06,SW,225,24.0,38.0,0,0.00,,,-99.99,Weather View 32 v60,2013-04-07 20:24:00,
2013-04-07 16:34:00,46.2,0.0,30.05,WSW,248,30.0,38.0,0,0.00,,,-99.99,Weather View 32 v60,2013-04-07 20:34:00,
2013-04-07 16:44:00,46.2,0.0,30.04,WSW,248,28.0,38.0,0,0.00,,,-99.99,Weather View 32 v60,2013-04-07 20:44:00,
2013-04-07 16:49:00,46.2,0.0,30.03,SW,225,30.0,38.0,0,0.00,,,-99.99,Weather View 32 v60,2013-04-07 20:49:00,
2013-04-07 16:59:00,46.6,0.0,30.03,WSW,248,33.0,40.0,0,0.00,,,-99.99,Weather View 32 v60,2013-04-07 20:59:00,
2013-04-07 17:04:00,46.6,0.0,30.03,WSW,248,33.0,40.0,0,0.00,,,-99.99,Weather View 32 v60,2013-04-07 21:04:00,
2013-04-07 17:14:00,46.2,0.0,30.03,SW,225,25.0,40.0,0,0.00,,,-99.99,Weather View 32 v60,2013-04-07 21:14:00,
2013-04-07 17:19:00,45.9,0.0,30.03,WSW,248,31.0,40.0,0,0.00,,,-99.99,Weather View 32 v60,2013-04-07 21:19:00,
2013-04-07 17:24:00,45.9,0.0,30.02,SW,225,31.0,40.0,0,0.00,,,-99.99,Weather View 32 v60,2013-04-07 21:24:00,
2013-04-07 17:34:00,46.2,0.0,30.01,SW,225,32.0,40.0,0,0.00,,,-99.99,Weather View 32 v60,2013-04-07 21:34:00,
2013-04-07 17:44:00,45.9,0.0,30.02,WSW,248,31.0,40.0,0,0.00,,,-99.99,Weather View 32 v60,2013-04-07 21:44:00,
2013-04-07 17:54:00,45.9,0.0,30.01,SW,225,32.0,40.0,0,0.00,,,-99.99,Weather View 32 v60,2013-04-07 21:54:00,
2013-04-07 17:59:00,45.9,0.0,30.01,WSW,248,36.0,40.0,0,0.00,,,-99.99,Weather View 32 v60,2013-04-07 21:59:00,
2013-04-07 18:04:00,45.9,0.0,30.00,WSW,248,30.0,43.0,0,0.00,,,-99.99,Weather View 32 v60,2013-04-07 22:04:00,
2013-04-07 18:14:00,45.9,0.0,30.00,SW,225,31.0,43.0,0,0.00,,,-99.99,Weather View 32 v60,2013-04-07 22:14:00,
2013-04-07 18:19:00,45.9,0.0,30.00,SW,225,32.0,43.0,0,0.00,,,-99.99,Weather View 32 v60,2013-04-07 22:19:00,
2013-04-07 18:29:00,46.2,0.0,30.01,WSW,248,33.0,43.0,0,0.00,,,-99.99,Weather View 32 v60,2013-04-07 22:29:00,
2013-04-07 18:34:00,46.2,0.0,30.02,WSW,248,27.0,43.0,0,0.00,,,-99.99,Weather View 32 v60,2013-04-07 22:34:00,
2013-04-07 18:39:00,46.2,0.0,30.03,WSW,248,32.0,43.0,0,0.00,,,-99.99,Weather View 32 v60,2013-04-07 22:39:00,
2013-04-07 18:44:00,46.2,0.0,30.04,SW,225,27.0,43.0,0,0.00,,,-99.99,Weather View 32 v60,2013-04-07 22:44:00,
2013-04-07 18:49:00,46.2,0.0,30.04,WSW,248,27.0,43.0,0,0.00,,,-99.99,Weather View 32 v60,2013-04-07 22:49:00,
2013-04-07 18:54:00,46.2,0.0,30.03,WSW,248,24.0,43.0,0,0.00,,,-99.99,Weather View 32 v60,2013-04-07 22:54:00,
2013-04-07 19:04:00,46.2,0.0,30.03,SW,225,23.0,41.0,0,0.00,,,-99.99,Weather View 32 v60,2013-04-07 23:04:00,
2013-04-07 19:09:00,45.9,0.0,30.03,SW,225,25.0,41.0,0,0.00,,,-99.99,Weather View 32 v60,2013-04-07 23:09:00,
2013-04-07 19:19:00,45.9,0.0,30.04,SW,225,24.0,41.0,0,0.00,,,-99.99,Weather View 32 v60,2013-04-07 23:19:00,
2013-04-07 19:24:00,45.5,0.0,30.03,WSW,248,22.0,38.0,0,0.00,,,-99.99,Weather View 32 v60,2013-04-07 23:24:00,
2013-04-07 19:34:00,45.5,0.0,30.02,WSW,248,22.0,37.0,0,0.00,,,-99.99,Weather View 32 v60,2013-04-07 23:34:00,
2013-04-07 19:39:00,45.1,0.0,30.02,SW,225,22.0,35.0,0,0.00,,,-99.99,Weather View 32 v60,2013-04-07 23:39:00,
2013-04-07 19:44:00,45.1,0.0,30.02,WSW,248,23.0,34.0,0,0.00,,,-99.99,Weather View 32 v60,2013-04-07 23:44:00,
2013-04-07 19:54:00,44.8,0.0,30.02,WSW,248,23.0,33.0,0,0.00,,,-99.99,Weather View 32 v60,2013-04-07 23:54:00,
2013-04-07 20:04:00,44.8,0.0,30.03,WSW,248,21.0,30.0,0,0.00,,,-99.99,Weather View 32 v60,2013-04-08 00:04:00,
2013-04-07 20:09:00,44.4,0.0,30.03,WSW,248,22.0,30.0,0,0.00,,,-99.99,Weather View 32 v60,2013-04-08 00:09:00,
2013-04-07 20:14:00,44.4,0.0,30.05,SW,225,21.0,30.0,0,0.00,,,-99.99,Weather View 32 v60,2013-04-08 00:14:00,
2013-04-07 20:29:00,44.8,0.0,30.03,SW,225,21.0,30.0,0,0.00,,,-99.99,Weather View 32 v60,2013-04-08 00:29:00,
2013-04-07 20:39:00,44.8,0.0,30.04,SW,225,20.0,30.0,0,0.00,,,-99.99,Weather View 32 v60,2013-04-08 00:39:00,
2013-04-07 20:44:00,44.8,0.0,30.04,SW,225,22.0,28.0,0,0.00,,,-99.99,Weather View 32 v60,2013-04-08 00:44:00,
2013-04-07 20:54:00,44.8,0.0,30.03,SW,225,20.0,27.0,0,0.00,,,-99.99,Weather View 32 v60,2013-04-08 00:54:00,
2013-04-07 20:59:00,44.8,0.0,30.03,WSW,248,19.0,27.0,0,0.00,,,-99.99,Weather View 32 v60,2013-04-08 00:59:00,
2013-04-07 21:04:00,44.4,0.0,30.03,WSW,248,17.0,27.0,0,0.00,,,-99.99,Weather View 32 v60,2013-04-08 01:04:00,
2013-04-07 21:09:00,44.4,0.0,30.03,WSW,248,20.0,27.0,0,0.00,,,-99.99,Weather View 32 v60,2013-04-08 01:09:00,
2013-04-07 21:14:00,44.4,0.0,30.03,WSW,248,19.0,27.0,0,0.00,,,-99.99,Weather View 32 v60,2013-04-08 01:14:00,
2013-04-07 21:19:00,44.4,0.0,30.02,SW,225,19.0,25.0,0,0.00,,,-99.99,Weather View 32 v60,2013-04-08 01:19:00,
2013-04-07 21:29:00,44.1,0.0,30.02,WSW,248,18.0,25.0,0,0.00,,,-99.99,Weather View 32 v60,2013-04-08 01:29:00,
2013-04-07 21:34:00,44.1,0.0,30.02,WSW,248,18.0,24.0,0,0.00,,,-99.99,Weather View 32 v60,2013-04-08 01:34:00,
2013-04-07 21:44:00,44.1,0.0,30.01,SW,225,20.0,23.0,0,0.00,,,-99.99,Weather View 32 v60,2013-04-08 01:44:00,
2013-04-07 21:54:00,43.7,0.0,30.01,SW,225,18.0,22.0,0,0.00,,,-99.99,Weather View 32 v60,2013-04-08 01:54:00,
2013-04-07 21:59:00,43.7,0.0,30.02,WSW,248,17.0,22.0,0,0.00,,,-99.99,Weather View 32 v60,2013-04-08 01:59:00,
2013-04-07 22:04:00,43.7,0.0,30.02,SW,225,15.0,22.0,0,0.00,,,-99.99,Weather View 32 v60,2013-04-08 02:04:00,
2013-04-07 22:14:00,43.7,0.0,30.02,WSW,248,15.0,22.0,0,0.00,,,-99.99,Weather View 32 v60,2013-04-08 02:14:00,
2013-04-07 22:19:00,43.7,0.0,30.01,SW,225,17.0,22.0,0,0.00,,,-99.99,Weather View 32 v60,2013-04-08 02:19:00,
2013-04-07 22:24:00,43.7,0.0,30.00,SW,225,18.0,22.0,0,0.00,,,-99.99,Weather View 32 v60,2013-04-08 02:24:00,
2013-04-07 22:39:00,43.7,0.0,30.01,SW,225,16.0,22.0,0,0.00,,,-99.99,Weather View 32 v60,2013-04-08 02:39:00,
2013-04-07 22:44:00,43.5,0.0,30.01,SW,225,15.0,22.0,0,0.00,,,-99.99,Weather View 32 v60,2013-04-08 02:44:00,
2013-04-07 22:54:00,43.9,0.0,30.00,SW,225,17.0,19.0,0,0.00,,,-99.99,Weather View 32 v60,2013-04-08 02:54:00,
2013-04-07 22:59:00,44.6,0.0,30.00,WSW,248,18.0,21.0,0,0.00,,,-99.99,Weather View 32 v60,2013-04-08 02:59:00,
2013-04-07 23:04:00,44.6,0.0,29.99,SW,225,19.0,21.0,0,0.00,,,-99.99,Weather View 32 v60,2013-04-08 03:04:00,
2013-04-07 23:09:00,44.6,0.0,29.99,WSW,248,18.0,21.0,0,0.00,,,-99.99,Weather View 32 v60,2013-04-08 03:09:00,
2013-04-07 23:14:00,44.6,0.0,29.99,SW,225,17.0,21.0,0,0.00,,,-99.99,Weather View 32 v60,2013-04-08 03:14:00,
2013-04-07 23:24:00,44.6,0.0,29.99,WSW,248,19.0,21.0,0,0.00,,,-99.99,Weather View 32 v60,2013-04-08 03:24:00,
2013-04-07 23:29:00,44.6,0.0,29.99,SW,225,17.0,21.0,0,0.00,,,-99.99,Weather View 32 v60,2013-04-08 03:29:00,
2013-04-07 23:39:00,44.6,0.0,29.99,SW,225,17.0,21.0,0,0.00,,,-99.99,Weather View 32 v60,2013-04-08 03:39:00,
2013-04-07 23:49:00,44.6,0.0,29.98,WSW,248,18.0,21.0,0,0.00,,,-99.99,Weather View 32 v60,2013-04-08 03:49:00,
2013-04-07 23:59:00,44.6,0.0,29.98,WSW,248,13.0,21.0,0,0.00,,,-99.99,Weather View 32 v60,2013-04-08 03:59:00,